Location: College Rock
(37.2713°N, 119.1740°W)
Time: 04:12:44
(UTC+00:00)

Cosmos 1992 Rocket - Pass Details

Date: 29 October 2020
Orbit: 759 x 765 km, 74.0° (Epoch: 23 November)

Event Time Altitude Azimuth Distance (km) Brightness Sun altitude
Exits shadow 12:59:09 - 333° (NNW) 2,641 6.5 -16.4°
Reaches altitude 10° 13:00:04 10° 331° (NNW) 2,298 6.1 -16.2°
Maximum altitude 13:05:05 51° 257° (WSW) 957 4.1 -15.2°
Drops below altitude 10° 13:10:06 10° 182° (S) 2,287 6.5 -14.2°
Sets 13:12:30 0° 177° (S) 3,210 7.4 -13.7°
